Location: *
(50.0341°N, 19.5618°E)
Time: 18:16:40
(UTC+00:00)

Daily predictions for brighter satellites

Satellite Brightness Start Highest point End
(mag) Time Altitude Azimuth Time Altitude Azimuth Time Altitude Azimuth
MOS 1 4.4 17:42:47 10° SE 17:48:19 59° ENE 17:53:53 10° N
CZ-2C R/B 3.1 17:44:00 10° SSE 17:48:48 55° ENE 17:53:28 10° N
STARLINK-1130 (DARKSAT) 4.3 17:45:04 10° WNW 17:49:06 51° SSW 17:53:07 10° SE
STARLINK-1237 3.8 17:46:26 10° WSW 17:50:35 74° NNW 17:54:44 10° ENE
CZ-2C R/B 3.9 17:49:37 10° NE 17:53:07 18° E 17:56:37 10° SE
Cosmos 1656 Rocket 4.4 17:47:58 10° NNW 17:53:14 37° NE 17:58:26 10° ESE
Meteor 1-21 Rocket 4.4 17:48:23 10° N 17:53:51 54° ENE 17:59:15 10° SSE
STARLINK-1084 4.4 17:50:04 10° WNW 17:54:04 48° SSW 17:58:03 10° SE
Cosmos 1758 3.4 17:50:42 10° S 17:54:43 58° E 17:58:46 10° NNE
STARLINK-1202 3.9 17:51:25 10° W 17:55:33 72° NNW 17:59:42 10° ENE
Cosmos 1992 Rocket 4.1 17:51:14 10° NNW 17:56:26 63° ENE 18:01:36 10° SE
STARLINK-1203 3.9 17:52:53 10° W 17:57:00 68° NNW 18:01:07 10° ENE
Cosmos 2084 Rocket 3.9 17:53:37 10° NW 17:58:03 65° SW 18:02:29 10° SSE
STARLINK-1233 3.6 17:55:40 10° W 17:58:45 49° N 18:01:50 10° ENE
STARLINK-1098 4.5 17:55:04 10° WNW 17:59:02 45° SSW 18:02:59 10° SE
Cosmos 2228 4.4 17:56:06 10° SE 17:59:10 19° E 18:02:15 10° NE
STARLINK-1212 3.6 17:56:08 10° W 17:59:12 49° N 18:02:16 10° ENE
STARLINK-1105 3.6 17:56:35 10° W 17:59:39 49° N 18:02:44 10° ENE
COSMOS 2455 4.2 17:54:37 10° NNW 17:59:39 26° NNE 18:04:39 10° E
STARLINK-1206 3.6 17:57:04 10° W 18:00:07 49° N 18:03:10 10° ENE
STARLINK-1247 3.6 17:57:31 10° W 18:00:34 49° N 18:03:37 10° ENE
STARLINK-1227 3.7 17:57:56 10° W 18:00:59 49° N 18:04:04 10° ENE
CZ-4 R/B 4.1 17:58:13 10° SW 18:01:13 21° W 18:04:13 10° NW
ARGOS 3.2 17:56:04 10° SSE 18:01:25 68° ENE 18:06:47 10° N
STARLINK-1218 3.6 17:58:26 10° W 18:01:29 48° N 18:04:32 10° ENE
STARLINK-1226 3.6 17:58:51 10° W 18:01:55 48° N 18:04:58 10° ENE
STARLINK-1254 3.7 17:59:17 10° W 18:02:21 48° N 18:05:26 10° ENE
STARLINK-1215 3.7 17:59:47 10° W 18:02:50 48° N 18:05:53 10° ENE
STARLINK-1231 3.7 18:00:15 10° W 18:03:18 48° N 18:06:21 10° ENE
STARLINK-1232 3.7 18:01:09 10° W 18:04:11 48° N 18:07:14 10° ENE
STARLINK-1217 3.7 18:01:36 10° W 18:04:38 48° N 18:07:41 10° ENE
Cosmos 1603 4.2 17:59:54 10° S 18:05:01 37° ESE 18:10:08 10° NE
STARLINK-1208 3.7 18:02:01 10° W 18:05:04 48° N 18:08:09 10° ENE
STARLINK-1246 3.9 18:01:22 10° W 18:05:30 67° NNW 18:09:38 10° ENE
STARLINK-1229 3.7 18:02:29 10° W 18:05:31 48° N 18:08:34 10° ENE
STARLINK-1271 3.7 18:02:57 10° W 18:05:59 48° N 18:09:02 10° ENE
STARLINK-1270 3.7 18:03:24 10° W 18:06:27 48° N 18:09:30 10° ENE
STARLINK-1154 3.7 18:03:51 10° W 18:06:53 48° N 18:09:56 10° ENE
Meteor 2-15 4.4 18:01:25 10° S 18:07:28 78° E 18:13:32 10° NNE
STARLINK-1197 3.7 18:04:45 10° W 18:07:47 47° N 18:10:51 10° ENE
STARLINK-1189 3.7 18:05:13 10° W 18:08:16 47° N 18:11:19 10° ENE
STARLINK-1198 3.7 18:05:39 10° W 18:08:42 47° N 18:11:44 10° ENE
STARLINK-1188 3.7 18:06:07 10° W 18:09:09 47° N 18:12:12 10° ENE
Cosmos 2237 Rocket 4.1 18:04:20 10° WSW 18:09:25 34° NW 18:14:32 10° NNE
STARLINK-1235 3.7 18:06:47 10° WNW 18:09:51 46° N 18:12:56 10° ENE
STARLINK-1187 3.7 18:07:04 10° W 18:10:08 47° N 18:13:13 10° ENE
STARLINK-1224 4.0 18:06:25 10° W 18:10:33 65° NNW 18:14:41 10° ENE
STARLINK-1199 3.7 18:08:03 10° W 18:11:07 47° N 18:14:11 10° ENE
H-2A R/B 2.1 18:05:51 10° SSE 18:11:07 88° W 18:16:16 10° NNW
STARLINK-1201 3.7 18:08:14 10° W 18:11:26 49° N 18:14:38 10° ENE
STARLINK-1191 3.7 18:08:31 10° W 18:11:34 47° N 18:14:39 10° ENE
Cosmos 2184 Rocket 4.2 18:05:39 10° N 18:11:52 55° ENE 18:17:58 10° SSE
STARLINK-1210 3.7 18:08:58 10° W 18:12:01 47° N 18:15:05 10° ENE
STARLINK-1221 3.7 18:09:24 10° W 18:12:28 47° N 18:15:32 10° ENE
STARLINK-1219 3.7 18:09:52 10° W 18:12:55 47° N 18:16:00 10° ENE
STARLINK-1222 3.7 18:10:19 10° W 18:13:23 47° N 18:16:27 10° ENE
Cosmos 1726 2.7 18:10:14 10° SSE 18:13:39 35° E 18:17:05 10° NNE
STARLINK-1211 3.7 18:10:46 10° W 18:13:50 47° N 18:16:54 10° ENE
STARLINK-1214 3.7 18:11:14 10° W 18:14:17 47° N 18:17:22 10° ENE
STARLINK-1245 3.7 18:11:42 10° W 18:14:45 47° N 18:17:46 10° ENE
STARLINK-1234 3.7 18:12:01 10° WNW 18:14:57 45° N 18:17:46 11° ENE
STARLINK-1238 3.7 18:12:08 10° W 18:15:11 47° N 18:18:14 10° ENE
STARLINK-1225 4.0 18:11:22 10° W 18:15:30 64° NNW 18:19:37 10° ENE
STARLINK-1228 3.6 18:12:45 10° WNW 18:15:34 43° N 18:18:10 11° ENE
USA 186 1.9 18:12:38 10° S 18:16:01 80° WSW 18:19:17 10° NNW
STARLINK-1205 3.7 18:13:04 10° W 18:16:07 46° N 18:19:05 10° ENE
STARLINK-1204 3.7 18:13:31 10° W 18:16:33 46° N 18:19:30 11° ENE
Resurs 1-3 4.0 18:14:15 10° SE 18:18:25 44° ENE 18:22:36 10° N
STARLINK-1230 4.0 18:16:24 10° W 18:20:30 62° N 18:24:37 10° ENE
Meteor 2-10 4.3 18:17:31 10° S 18:22:45 52° E 18:28:11 10° NNE
ATLAS CENTAUR R/B 4.1 18:24:07 10° NNW 18:25:00 11° N 18:25:53 10° NNE
STARLINK-1243 4.1 18:21:22 10° W 18:25:29 61° N 18:29:36 10° ENE
STARLINK-1209 3.6 18:22:43 10° WNW 18:25:35 44° N 18:27:49 15° ENE
Cosmos 292 Rocket 4.1 18:23:01 10° NNW 18:27:47 66° WSW 18:32:32 10° S
Cosmos 1461 4.2 18:24:30 10° NNW 18:28:29 31° NE 18:31:32 15° E
Cosmos 1703 3.7 18:24:45 10° N 18:28:33 42° ENE 18:31:28 16° SE
DMSP B5D2-2 4.5 18:23:39 10° NNE 18:28:33 40° E 18:33:26 10° SSE
Cosmos 2251 Rocket 3.5 18:24:13 10° SSW 18:29:32 71° ESE 18:34:55 10° NNE
STARLINK-1236 4.1 18:26:26 10° W 18:30:32 60° N 18:34:25 11° ENE
NOSS 3-4 (A) 4.0 18:24:51 10° NW 18:31:36 60° NE 18:37:30 17° ESE
NOSS 3-4 (C) 4.0 18:24:57 10° NW 18:31:42 60° NE 18:37:35 17° ESE
Cosmos 1953 2.2 18:28:17 10° S 18:32:14 81° E 18:36:15 10° NNE
ERBS 4.2 18:29:42 10° WNW 18:32:33 24° N 18:35:23 10° ENE
Cosmos 2154 Rocket 4.2 18:27:29 10° N 18:33:42 52° ENE 18:39:30 12° SSE
Resurs 01 Rocket 1.9 18:34:55 16° SE 18:38:10 49° ENE 18:42:26 10° N
FREGAT/IRIS 4.3 18:36:14 10° SSW 18:38:43 31° W 18:41:12 10° NNW
Cosmos 2369 Rocket 2.6 18:33:35 10° NW 18:39:14 63° WSW 18:44:48 10° SSE
Aureole 3 4.1 18:35:57 10° SSW 18:40:28 78° W 18:46:22 10° N
STARLINK-1269 4.1 18:36:23 10° W 18:40:29 58° N 18:43:57 14° ENE
NOSS 3-3 (A) 3.9 18:36:26 10° SSW 18:42:16 67° SE 18:48:54 10° NE
NOSS 3-3 (C) 3.9 18:36:32 10° SSW 18:42:22 67° SE 18:49:00 10° NE
Nadezhda 1 Rocket 4.2 18:36:59 10° SSE 18:43:08 52° E 18:49:17 10° NNE
Cosmos 2058 Rocket 3.9 18:41:07 20° SE 18:43:22 30° E 18:47:20 10° NNE
Cosmos 1943 Rocket 3.2 18:39:55 10° NW 18:45:09 44° WSW 18:50:24 10° S
Cosmos 1437 2.7 18:42:12 10° NNW 18:45:14 74° W 18:47:33 16° S
STARLINK-1200 4.1 18:41:22 10° W 18:45:28 57° N 18:48:43 16° ENE
SL-8 R/B 4.5 18:42:36 10° W 18:47:05 41° SSW 18:49:51 21° SE
CZ-2C R/B 3.7 18:42:41 10° NNE 18:47:27 75° ESE 18:52:07 10° S
Meteor 1-11 4.4 18:42:00 10° N 18:47:44 59° ENE 18:52:03 17° SSE
STARLINK-1192 4.1 18:46:22 10° W 18:50:28 56° N 18:53:30 17° ENE
Cosmos 1908 3.3 18:52:23 16° S 18:55:16 54° E 18:59:05 10° NNE
STARLINK-1244 4.1 18:51:22 10° W 18:55:28 56° N 18:58:17 19° ENE
STARLINK-1138 4.1 18:56:23 10° W 19:00:28 56° N 19:03:04 21° ENE
Cosmos 2074 Rocket 4.3 18:54:38 10° NNW 19:00:53 70° W 19:07:07 10° S
SPOT 5 4.2 19:00:07 18° ENE 19:00:54 19° ENE 19:03:58 10° NNE
Abrixas rocket 1.9 18:58:01 10° WSW 19:00:58 62° S 19:01:18 55° SE
STARLINK-67 2.7 18:59:09 10° WNW 19:01:41 54° NNE 19:01:57 50° NE
Cosmos 1726 Rocket 3.5 18:57:42 10° S 19:02:03 67° E 19:06:29 10° NNE
ATLAS 2AS CENTAUR R/B 2.9 18:56:31 10° NW 19:04:16 85° NE 19:08:47 25° SE
USA 234 3.4 18:58:43 10° ENE 19:05:02 49° SE 19:11:19 10° SSW
Cosmos 1943 3.1 18:59:32 10° SSW 19:05:12 81° ESE 19:10:56 10° NNE
STARLINK-1143 4.1 19:01:19 10° W 19:05:24 56° N 19:07:48 23° ENE
Cosmos 1825 Rocket 4.1 19:01:28 10° NNW 19:05:49 59° W 19:10:01 11° S
ISS -1.5 19:03:51 10° W 19:06:04 17° SW 19:07:16 14° SSW
Aureole 1 Rocket 4.3 19:00:34 10° S 19:08:05 55° ESE 19:14:07 10° NNE
Spot 2 Rocket 3.7 19:06:11 29° SE 19:08:36 54° ENE 19:13:35 10° N
STARLINK-1241 4.1 19:06:22 10° W 19:10:28 55° N 19:12:38 25° ENE
Meteor 2-17 Rocket 4.4 19:06:07 10° N 19:12:18 89° WSW 19:17:20 16° S
SPOT 3 Rocket 4.3 19:07:35 10° S 19:12:40 52° W 19:17:47 10° NNW
Cosmos 1140 Rocket 4.0 19:11:31 32° SE 19:12:47 37° ESE 19:17:31 10° NE
STARLINK-1239 4.1 19:11:22 10° WNW 19:15:28 55° N 19:17:25 28° ENE
Iridium 4 Rocket 4.2 19:13:30 10° NNE 19:16:55 25° ENE 19:16:55 25° ENE
MetOp-B 4.1 19:15:55 29° SSE 19:18:44 74° ENE 19:24:06 10° NNW
STARLINK-1240 4.1 19:16:22 10° WNW 19:20:27 56° N 19:22:12 31° ENE
MOS 1 Rocket 3.6 19:16:41 10° NNE 19:22:01 85° WNW 19:27:28 10° SSW
Cosmos 1953 Rocket 4.2 19:20:26 10° NNW 19:24:49 56° W 19:27:52 19° SSW
STARLINK-1216 4.1 19:21:22 10° WNW 19:25:28 56° N 19:27:00 34° ENE
CZ-4C R/B 4.2 19:20:39 10° NW 19:26:08 28° NNE 19:32:22 10° ENE
SL-16 R/B 4.5 19:22:35 10° W 19:27:14 25° NW 19:31:54 10° NNE
Terra 2.9 19:28:43 27° ENE 19:29:12 27° ENE 19:33:12 10° N
Cosmos 1606 Rocket 4.3 19:25:56 10° SSW 19:30:16 53° WNW 19:34:40 10° N
STARLINK-1237 4.1 19:26:22 10° WNW 19:30:28 56° N 19:31:47 38° ENE
Cosmos 1818 3.5 19:25:11 10° SW 19:30:37 85° SE 19:36:07 10° NE
Cosmos 921 Rocket 2.8 19:28:00 10° NNW 19:32:12 75° ENE 19:32:50 61° SE
CZ-2C R/B 2.7 19:28:49 10° N 19:34:00 73° WNW 19:39:09 10° SSW
Cosmos 614 Rocket 3.9 19:29:06 10° SSW 19:34:20 84° ESE 19:39:35 10° NNE
BREEZE M DEB (TANK) 3.5 19:27:02 10° SW 19:34:30 46° SSE 19:34:30 46° SSE
STARLINK-1233 3.4 19:31:43 10° WNW 19:34:36 56° NNW 19:34:36 56° NNW
STARLINK-1212 3.4 19:32:11 10° WNW 19:35:01 55° NNW 19:35:01 55° NNW
Cosmos 407 Rocket 3.3 19:30:14 10° SSW 19:35:22 73° ESE 19:40:30 10° NNE
STARLINK-1202 4.1 19:31:21 10° WNW 19:35:27 57° N 19:36:33 42° ENE
STARLINK-1105 3.4 19:32:38 10° WNW 19:35:29 56° NNW 19:35:29 56° NNW
STARLINK-1206 3.5 19:33:07 10° WNW 19:35:53 54° NNW 19:35:53 54° NNW
Cosmos 2228 3.9 19:32:12 10° SSW 19:36:21 48° WNW 19:40:35 10° N
STARLINK-1247 3.5 19:33:34 10° WNW 19:36:19 54° NNW 19:36:19 54° NNW
STARLINK-1203 4.0 19:32:42 10° WNW 19:36:47 58° N 19:37:45 44° ENE
Cosmos 1656 Rocket 4.5 19:31:34 10° NW 19:36:59 47° WSW 19:40:14 22° S
STARLINK-1227 3.5 19:33:58 10° WNW 19:36:45 55° NNW 19:36:45 55° NNW
STARLINK-1218 3.5 19:34:28 10° WNW 19:37:11 53° NNW 19:37:11 53° NNW
SPOT 1/Viking Rocket 3.6 19:36:24 45° SE 19:37:49 64° ENE 19:43:00 10° N
STARLINK-1226 3.5 19:34:54 10° WNW 19:37:37 53° NNW 19:37:37 53° NNW
STARLINK-1254 3.5 19:35:20 10° WNW 19:38:04 54° NNW 19:38:04 54° NNW
STARLINK-1215 3.6 19:35:49 10° WNW 19:38:29 52° NNW 19:38:29 52° NNW
STARLINK-1231 3.6 19:36:17 10° WNW 19:38:56 52° NNW 19:38:56 52° NNW
IGS 5A 3.3 19:39:45 65° ESE 19:40:04 69° ENE 19:44:15 10° N
STARLINK-1232 3.6 19:37:11 10° WNW 19:39:48 51° NNW 19:39:48 51° NNW
STARLINK-1217 3.7 19:37:37 10° WNW 19:40:14 51° NNW 19:40:14 51° NNW
STARLINK-1208 3.6 19:38:03 10° WNW 19:40:40 52° NNW 19:40:40 52° NNW
STARLINK-1229 3.7 19:38:30 10° WNW 19:41:04 50° NW 19:41:04 50° NW
SAR-Lupe-2 3.5 19:38:22 10° NNE 19:41:58 80° WNW 19:42:09 76° WSW
STARLINK-1271 3.7 19:38:58 10° WNW 19:41:32 50° NW 19:41:32 50° NW
STARLINK-1270 3.7 19:39:26 10° WNW 19:41:57 49° NW 19:41:57 49° NW
STARLINK-1154 3.8 19:39:52 10° WNW 19:42:23 49° NW 19:42:23 49° NW
STARLINK-1197 3.8 19:40:46 10° WNW 19:43:15 48° NW 19:43:15 48° NW
STARLINK-1189 3.8 19:41:14 10° WNW 19:43:42 47° NW 19:43:42 47° NW
STARLINK-1198 3.9 19:41:41 10° WNW 19:44:07 47° NW 19:44:07 47° NW
STARLINK-1188 3.9 19:42:08 10° WNW 19:44:33 46° NW 19:44:33 46° NW
STARLINK-1246 4.0 19:41:18 10° WNW 19:45:26 59° N 19:46:06 50° NE
Cosmos 2341 Rocket 4.0 19:39:03 10° N 19:45:27 87° W 19:48:37 33° S
STARLINK-1235 3.9 19:42:46 10° WNW 19:45:11 47° NW 19:45:11 47° NW
BREEZE-M DEB (TANK) 4.4 19:42:12 10° W 19:45:58 30° SW 19:45:58 30° SW
STARLINK-1187 3.9 19:43:06 10° WNW 19:45:33 47° NW 19:45:33 47° NW
COSMOS 2455 2.8 19:40:24 10° NW 19:46:28 83° NE 19:48:18 47° SE
SL-4 R/B 4.3 19:43:39 10° SW 19:43:45 11° SW 19:43:45 11° SW
STARLINK-1199 3.9 19:44:04 10° WNW 19:46:28 46° NW 19:46:28 46° NW
STARLINK-1191 4.0 19:44:31 10° WNW 19:46:54 45° NW 19:46:54 45° NW
STARLINK-1201 3.8 19:44:42 10° WNW 19:47:21 50° NW 19:47:21 50° NW
STARLINK-1210 4.0 19:44:58 10° WNW 19:47:20 45° NW 19:47:20 45° NW
STARLINK-1221 4.0 19:45:25 10° WNW 19:47:46 44° NW 19:47:46 44° NW
ERS-1 Rocket 3.0 19:47:59 54° ESE 19:48:44 62° ENE 19:53:42 10° N
STARLINK-1219 4.0 19:45:52 10° WNW 19:48:12 44° NW 19:48:12 44° NW
Cosmos 1340 Rocket 3.1 19:47:46 39° SW 19:49:07 67° WNW 19:53:10 10° N
STARLINK-1222 4.1 19:46:20 10° WNW 19:48:38 43° NW 19:48:38 43° NW
Cosmos 1980 Rocket 4.2 19:46:07 10° N 19:49:47 17° NNE 19:52:06 14° ENE
STARLINK-1211 4.1 19:46:47 10° WNW 19:49:04 43° NW 19:49:04 43° NW
STARLINK-1214 4.1 19:47:14 10° WNW 19:49:31 42° NW 19:49:31 42° NW
STARLINK-1224 3.9 19:46:21 10° WNW 19:50:28 60° N 19:50:56 55° NE
STARLINK-1234 4.3 19:47:40 10° WNW 19:49:39 37° WNW 19:49:39 37° WNW
STARLINK-1245 4.2 19:47:42 10° WNW 19:49:55 41° NW 19:49:55 41° NW
STARLINK-1238 4.1 19:48:08 10° WNW 19:50:23 42° NW 19:50:23 42° NW
STARLINK-1205 4.2 19:49:04 10° WNW 19:51:14 39° NW 19:51:14 39° NW
STARLINK-1204 4.3 19:49:31 10° WNW 19:51:39 39° NW 19:51:39 39° NW
STARLINK-1225 3.9 19:51:18 10° WNW 19:55:25 61° N 19:55:40 59° NNE
Cosmos 1954 Rocket 4.0 19:57:46 57° E 19:57:46 57° E 20:02:35 10° NNE
Cosmos 220 Rocket 4.4 19:53:29 10° NNW 19:57:26 52° NE 19:57:26 52° NE
Cosmos 1892 3.8 19:54:07 10° N 19:56:50 36° NNE 19:56:50 36° NNE
STARLINK-1230 3.9 19:56:18 10° WNW 20:00:25 62° N 20:00:28 62° NNE
STARLINK-1243 3.9 20:01:16 10° WNW 20:05:14 63° N 20:05:14 63° N
ATLAS CENTAUR R/B 3.5 20:02:54 10° NNW 20:05:33 17° NNE 20:06:08 16° NE
Cosmos 2218 Rocket 3.9 20:00:01 10° N 20:06:14 85° E 20:07:52 53° SSE
Cosmos 1461 3.4 20:03:25 10° NW 20:07:52 56° SW 20:07:55 56° SW
Cosmos 1656 4.2 20:02:46 10° NNW 20:08:15 44° NE 20:08:58 42° ENE
ERBS 4.0 20:06:18 10° NW 20:08:37 32° NNW 20:08:37 32° NNW
STARLINK-1236 4.0 20:06:18 10° WNW 20:10:04 61° NNW 20:10:04 61° NNW
Cosmos 1076 Rocket 3.7 20:07:25 10° N 20:11:09 66° N 20:11:09 66° N
Resurs 01 Rocket 3.8 20:12:29 14° SW 20:14:56 21° W 20:18:19 10° NW
Cosmos 2151 4.3 20:11:57 10° N 20:14:38 31° NNE 20:14:38 31° NNE
ATLAS 5 CENTAUR R/B 3.7 20:20:51 18° NE 20:20:51 18° NE 20:22:13 10° NE
Cosmos 1825 4.2 20:15:35 10° N 20:17:15 21° NNE 20:17:15 21° NNE
In-Cosmos 22 Rocket 4.3 20:13:19 10° NNW 20:19:10 80° W 20:20:12 62° S
STARLINK-1269 4.3 20:16:14 10° WNW 20:19:36 54° NW 20:19:36 54° NW
USA 32 4.2 20:15:14 10° N 20:20:05 58° ENE 20:20:05 58° ENE
Cosmos 2181 Rocket 4.0 20:18:41 42° SSW 20:20:59 80° W 20:27:14 10° N
Cosmos 1300 3.8 20:23:46 43° NW 20:23:46 43° NW 20:26:58 10° N
STARLINK-1200 4.5 20:21:12 10° WNW 20:24:22 49° NW 20:24:22 49° NW
Meteor 2-1 Rocket 4.2 20:25:44 72° ESE 20:25:54 73° E 20:31:50 10° NNE
Cosmos 1763 Rocket 3.6 20:23:52 10° NNW 20:28:47 66° NE 20:28:47 66° NE
SL-8 Rocket 4.4 20:24:44 10° NNW 20:30:54 57° W 20:32:55 40° SSW
CARTOSAT-1 4.3 20:36:52 50° WNW 20:36:52 50° WNW 20:40:29 10° NNW
SPOT 5 3.3 20:39:20 51° WNW 20:39:20 51° WNW 20:42:56 10° NNW
Cosmos 2058 4.0 20:34:49 10° NNW 20:37:54 42° NW 20:37:54 42° NW
SL-24 R/B - RUBIN 2 4.5 20:34:35 10° SW 20:40:18 72° NW 20:46:45 10° NE
Cosmos 2366 rocket 4.3 20:35:14 10° NNW 20:41:15 59° W 20:42:31 49° SW
USA 234 3.4 20:41:46 10° ENE 20:48:17 73° NNW 20:54:48 10° WSW
Cosmos 2369 4.2 20:44:15 10° NNW 20:49:33 50° NE 20:49:33 50° NE
Cosmos 540 Rocket 4.1 20:45:17 10° NNW 20:49:35 48° NNE 20:49:35 48° NNE
Nadezhda 3 Rocket 4.1 20:52:27 62° ENE 20:52:27 62° ENE 20:58:11 10° NNE
ATLAS 2AS CENTAUR R/B 4.1 20:48:24 10° WNW 20:54:24 27° WSW 20:56:14 24° SW
Cosmos 1570 Rocket 4.3 20:52:51 10° NNW 20:57:27 64° N 20:57:27 64° N
Meteor 2-3 Rocket 4.2 20:55:17 10° N 21:00:13 51° NE 21:00:13 51° NE
RESURS DK-1 4.1 20:57:22 10° NNW 20:59:42 31° NNW 20:59:42 31° NNW
Cosmos 841 Rocket 4.0 20:57:19 10° NNW 21:01:39 58° N 21:01:39 58° N
BREEZE M DEB (TANK) 3.9 21:02:08 60° SW 21:03:19 75° SSE 21:20:36 10° ENE
Terra 2.9 21:07:36 41° WNW 21:07:36 41° WNW 21:11:20 10° NNW
Cosmos 1697 Rocket 3.0 21:01:58 10° NNW 21:06:58 61° NNE 21:06:58 61° NNE
Mayak 0.8 21:11:39 10° NNE 21:13:23 24° N 21:13:23 24° N
CZ-4C R/B 3.2 21:09:21 10° NW 21:16:05 56° NE 21:17:32 49° ENE
SL-16 R/B 4.0 21:13:18 10° NNW 21:17:41 22° NE 21:18:41 21° NE
Meteor 2-10 Rocket 4.2 21:20:36 52° N 21:20:36 52° N 21:24:45 10° N
Cosmos 1821 Rocket 4.2 21:17:44 10° NNW 21:23:55 67° W 21:23:55 67° W
Cosmos 2344 4.4 21:15:20 10° NW 21:24:24 70° NE 21:28:51 43° ESE
Cosmos 2322 Rocket 4.0 21:24:42 10° NNW 21:29:05 22° NE 21:30:01 22° NE
ASTEX 1 4.5 21:33:47 42° NW 21:33:47 42° NW 21:37:18 10° NNW
Cosmos 1980 Rocket 2.8 21:29:23 10° NNW 21:33:52 51° N 21:33:52 51° N
Cosmos 1934 Rocket 4.1 21:30:03 10° N 21:35:38 71° NNW 21:35:38 71° NNW
Cosmos 1605 Rocket 4.3 21:36:47 10° N 21:41:55 61° NNE 21:41:55 61° NNE
ATLAS CENTAUR R/B 4.0 21:41:19 10° NW 21:42:19 17° NW 21:42:19 17° NW
Cosmos 2278 4.4 21:48:08 10° NNW 21:52:14 49° NW 21:52:14 49° NW
Cosmos 2082 Rocket 3.6 22:02:46 30° NE 22:02:46 30° NE 22:05:39 10° NE
ATLAS 5 CENTAUR R/B 3.6 22:02:16 27° NNW 22:02:37 28° NNW 22:06:59 10° NE
COSMOS 2406 4.0 22:09:22 48° NNW 22:09:22 48° NNW 22:14:00 10° NNE
Cosmos 1833 Rocket 3.6 22:21:36 44° N 22:21:36 44° N 22:25:31 10° NNE
SL-16 R/B 4.4 22:27:03 18° ENE 22:29:02 21° NE 22:33:28 10° N
USA 234 4.0 22:24:40 10° ENE 22:30:55 49° N 22:37:09 10° WNW
Mayak 1.7 22:49:11 10° NW 22:49:57 11° NW 22:49:57 11° NW
SL-16 R/B 3.2 22:56:55 10° NNW 23:00:33 41° NNW 23:00:33 41° NNW
Cosmos 1459 Rocket 4.5 22:56:16 10° NNW 23:01:18 57° NNW 23:01:18 57° NNW
Cosmos 1802 Rocket 4.4 22:57:52 10° N 23:02:46 57° NNW 23:02:46 57° NNW
CZ-4C R/B 3.6 22:57:55 10° NW 23:02:42 41° WNW 23:02:42 41° WNW
Cosmos 1725 Rocket 4.4 23:04:00 10° N 23:09:17 61° NNE 23:09:17 61° NNE
Cosmos 2360 Rocket 3.1 23:06:19 10° NNW 23:10:44 45° NNE 23:10:44 45° NNE
Cosmos 1607 4.4 23:13:57 55° NNE 23:13:57 55° NNE 23:18:45 10° NE
Cosmos 2333 Rocket 4.0 23:08:22 10° NNW 23:13:08 27° NE 23:15:07 22° ENE
Cosmos 2016 Rocket 4.4 23:07:15 10° N 23:12:25 61° NNW 23:12:25 61° NNW
Cosmos 2322 Rocket 3.3 23:08:17 10° NNW 23:11:48 40° NNW 23:11:48 40° NNW
Cosmos 1980 Rocket 4.3 23:14:01 10° NW 23:15:38 17° WNW 23:15:38 17° WNW
Cosmos 2123 Rocket 4.4 23:22:26 58° NE 23:22:26 58° NE 23:27:28 10° NNE
Resurs 1-4 Rocket 3.7 23:32:24 10° NE 23:36:00 27° ENE 23:36:00 27° ENE
Cosmos 2082 Rocket 3.6 23:44:34 31° NW 23:44:34 31° NW 23:49:33 10° NNE
ATLAS 5 CENTAUR R/B 4.5 23:45:27 10° NW 23:48:55 19° N 23:52:43 10° NE
CZ-2D R/B 3.4 23:44:21 10° NNE 23:48:41 35° E 23:48:41 35° E
